Weather Roundup
Issued by NWS Springfield, MO

Home | Current Version | Previous Version | Text Only | Print | Product List | Glossary On
Versions: 1 2 3 4 5 6 7 8 9 10 11 12 13 14 15 16 17 18 19 20 21 22 23 24 25 26 27 28 29 30 31 32 33 34 35 36 37 38 39 40 41 42 43 44 45 46 47 48 49 50
000
NZUS99 KSGF 091807
HRRSGF

HOURLY WEATHER
NATIONAL WEATHER SERVICE SPRINGFIELD MO
1200 PM CST FRI DEC 09 2016

......SGF CWA......

CITY           SKY/WX    TMP DP  RH WIND       PRES   REMARKS
SPRINGFIELD    SUNNY     29  11  47 VRB5      30.59F WCI  24
6HR MIN TEMP:  11; 6HR MAX TEMP:  29;

JOPLIN         SUNNY     28  12  51 VRB5      30.63F WCI  23
6HR MIN TEMP:  11; 6HR MAX TEMP:  28;

WEST PLAINS    SUNNY     30  12  47 NW6       30.61F WCI  24
6HR MIN TEMP:  11; 6HR MAX TEMP:  30;

ROLLA          SUNNY     26  10  50 W5        30.59F WCI  20
6HR MIN TEMP:  12; 6HR MAX TEMP:  27;

OSAGE BEACH    SUNNY     31  11  43 CALM      30.64F

......SURROUNDING SGF CWA......

CITY           SKY/WX    TMP DP  RH WIND       PRES   REMARKS
CHANUTE        SUNNY     28  12  51 SE8       30.61F WCI  20
PARSONS        MOSUNNY   29  12  49 SE5       30.63F WCI  24
COFFEYVILLE    PTSUNNY   29  13  51 VRB7      30.64F WCI  22
EMPORIA        CLOUDY    26  13  57 SE10      30.57F WCI  16
GROVE OK       MOSUNNY   32  16  51 E3        30.65F
ROGERS AR      SUNNY     28  15  58 E6        30.60F WCI  22
SILOAM SPRINGS PTSUNNY   30  14  51 SE7       30.60F WCI  23
HARRISON AR    SUNNY     29  13  51 E3        30.61F
NEAR YELLVILLE SUNNY     28  10  47 CALM      30.63F

......KANSAS AND MISSOURI......

CITY           SKY/WX    TMP DP  RH WIND       PRES   REMARKS
KANSAS CTY INT CLOUDY    22  11  62 S5        30.61F WCI  16
DOWNTOWN KC    CLOUDY    25  11  55 VRB3      30.64F
COLUMBIA       CLOUDY    24  10  55 NW7       30.62F WCI  16
SEDALIA        MOSUNNY   23  12  62 CALM      30.65F
ST JOSEPH      CLOUDY    22  13  68 CALM      30.64F
ST LOUIS       PTSUNNY   28  12  51 W8        30.63F WCI  20
SPIRIT OF STL  PTSUNNY   27  12  53 VRB5      30.64S WCI  22
KIRKSVILLE     SUNNY     23  10  57 W6        30.60F WCI  16
WICHITA        CLOUDY    26  12  55 S16       30.54F WCI  14
TOPEKA         CLOUDY    25  13  60 SE9       30.61F WCI  15
OLATHE         CLOUDY    22  11  62 VRB3      30.62F

......TENNESSEE......

CITY           SKY/WX    TMP DP  RH WIND       PRES   REMARKS
MEMPHIS        MOSUNNY   35  16  45 CALM      30.64F
NASHVILLE      MOSUNNY   35  15  44 N8        30.60F WCI  29

......ARKANSAS.......

CITY           SKY/WX    TMP DP  RH WIND       PRES   REMARKS
FAYETTEVILLE   MOSUNNY   30  14  51 CALM      30.60F
FT SMITH       CLOUDY    34  13  41 VRB5      30.66F WCI  30
LITTLE ROCK    MOSUNNY   33  15  47 NW3       30.68F

......OKLAHOMA.......

CITY           SKY/WX    TMP DP  RH WIND       PRES   REMARKS
TULSA          CLOUDY    29  14  53 S8        30.64F WCI  21
PONCA CITY     CLOUDY    26  12  55 SE12      30.60F WCI  16
MCALESTER      PTSUNNY   37  13  37 VRB5      30.62F WCI  33
OKLAHOMA CITY  CLOUDY    28  11  48 SE10      30.56F WCI  19

......IOWA............

CITY           SKY/WX    TMP DP  RH WIND       PRES   REMARKS
DES MOINES     CLOUDY    20   9  62 CALM      30.59F
QUAD CITIES    SUNNY     23  13  65 W8        30.57F WCI  14

......ILLINOIS........

CITY           SKY/WX    TMP DP  RH WIND       PRES   REMARKS
QUINCY         CLOUDY    21  13  71 W7        30.61F WCI  12
CHICAGO        FLURRIES  25  14  63 NW12      30.51F WCI  14



USA.gov is the U.S. government's official web portal to all federal, state and local government web resources and services.